When you browse on this site, cookies collect data to enhance your experience and personalize the content and advertising you see.
Visit our Privacy Policy to learn more. By continuing to use the site, you agree to this use of cookies and data.
  • In Hungary
  • List of Countries
  • For 7 days
  • Water Temperature
  • Satellite Maps
  • Weather Map
  • News
  • Weather Widgets
  • user-avatar
    Login

    Hourly Weather Horostkov

    Today, 18 January, Friday

    Time Temperature Precipitation Wind Pressure Humidity
    00:00 -1°C° 0 mm 2 mps 728 mmHg 83%
    01:00 -1°C° 0 mm 2 mps 728 mmHg 83%
    02:00 -2°C° 0 mm 2 mps 728 mmHg 83%
    03:00 -1°C° 0 mm 2 mps 728 mmHg 85%
    04:00 +1°C° 0 mm 2 mps 728 mmHg 86%
    05:00 0°C° 0 mm 3 mps 728 mmHg 87%
    06:00 +1°C° 0 mm 2 mps 728 mmHg 87%
    07:00 +1°C° 0 mm 2 mps 728 mmHg 88%
    08:00 +1°C° 0 mm 2 mps 728 mmHg 88%
    09:00 +1°C° 0.1 mm 2 mps 728 mmHg 91%
    10:00 +2°C° 0.1 mm 2 mps 728 mmHg 94%
    11:00 +2°C° 0.1 mm 2 mps 729 mmHg 97%
    12:00 +1°C° 0.2 mm 3 mps 729 mmHg 98%
    13:00 +1°C° 0.2 mm 3 mps 729 mmHg 98%
    14:00 +1°C° 0.2 mm 3 mps 729 mmHg 99%
    15:00 -1°C° 0.1 mm 4 mps 730 mmHg 97%
    16:00 -1°C° 0.1 mm 4 mps 730 mmHg 94%
    17:00 -1°C° 0.1 mm 4 mps 731 mmHg 92%
    18:00 -2°C° 0.2 mm 4 mps 731 mmHg 92%
    19:00 -2°C° 0.2 mm 4 mps 732 mmHg 92%
    20:00 -3°C° 0.2 mm 4 mps 732 mmHg 91%
    21:00 -3°C° 0.1 mm 4 mps 733 mmHg 92%
    22:00 -3°C° 0.1 mm 4 mps 734 mmHg 92%
    23:00 -3°C° 0.1 mm 4 mps 734 mmHg 92%

    Tomorrow, 19 January, Saturday

    Time Temperature Precipitation Wind Pressure Humidity
    00:00 -4°C° 0 mm 4 mps 735 mmHg 92%
    01:00 -5°C° 0 mm 3 mps 735 mmHg 92%
    02:00 -6°C° 0 mm 3 mps 736 mmHg 91%
    03:00 -6°C° 0 mm 3 mps 736 mmHg 92%
    04:00 -7°C° 0 mm 3 mps 736 mmHg 93%
    05:00 -7°C° 0 mm 3 mps 737 mmHg 93%
    06:00 -8°C° 0 mm 3 mps 737 mmHg 93%
    07:00 -7°C° 0 mm 2 mps 738 mmHg 92%
    08:00 -7°C° 0 mm 2 mps 738 mmHg 91%
    09:00 -7°C° 0 mm 2 mps 738 mmHg 91%
    10:00 -6°C° 0 mm 2 mps 739 mmHg 91%
    11:00 -5°C° 0 mm 2 mps 739 mmHg 90%
    12:00 -5°C° 0 mm 2 mps 739 mmHg 90%
    13:00 -2°C° 0 mm 1 mps 739 mmHg 89%
    14:00 -2°C° 0 mm 1 mps 739 mmHg 89%
    15:00 -3°C° 0 mm 1 mps 739 mmHg 90%
    16:00 -4°C° 0 mm 1 mps 739 mmHg 90%
    17:00 -5°C° 0 mm 0 mps 739 mmHg 91%
    18:00 -6°C° 0 mm 1 mps 739 mmHg 91%
    19:00 -6°C° 0 mm 1 mps 739 mmHg 91%
    20:00 -7°C° 0 mm 2 mps 739 mmHg 91%
    21:00 -7°C° 0 mm 2 mps 739 mmHg 91%
    22:00 -8°C° 0 mm 2 mps 739 mmHg 91%
    23:00 -8°C° 0 mm 2 mps 739 mmHg 91%

    Day after tomorrow, 20 January, Sunday

    Time Temperature Precipitation Wind Pressure Humidity
    00:00 -9°C° 0 mm 3 mps 738 mmHg 91%
    01:00 -9°C° 0 mm 3 mps 738 mmHg 90%
    02:00 -9°C° 0 mm 3 mps 738 mmHg 90%
    03:00 -9°C° 0 mm 3 mps 737 mmHg 90%
    04:00 -10°C° 0 mm 4 mps 737 mmHg 90%
    05:00 -10°C° 0 mm 4 mps 736 mmHg 90%
    06:00 -10°C° 0 mm 4 mps 736 mmHg 90%
    07:00 -10°C° 0 mm 4 mps 736 mmHg 90%
    08:00 -10°C° 0 mm 4 mps 735 mmHg 91%
    09:00 -9°C° 0 mm 4 mps 735 mmHg 91%
    10:00 -9°C° 0 mm 4 mps 735 mmHg 91%
    11:00 -8°C° 0 mm 5 mps 735 mmHg 90%
    12:00 -8°C° 0.1 mm 4 mps 734 mmHg 91%
    13:00 -8°C° 0.1 mm 4 mps 734 mmHg 92%
    14:00 -6°C° 0.1 mm 3 mps 733 mmHg 92%
    15:00 -5°C° 0.2 mm 2 mps 733 mmHg 94%
    16:00 -5°C° 0.2 mm 2 mps 733 mmHg 95%
    17:00 -3°C° 0.2 mm 1 mps 733 mmHg 96%
    18:00 -3°C° 0.3 mm 1 mps 733 mmHg 96%
    19:00 -3°C° 0.3 mm 1 mps 733 mmHg 96%
    20:00 -3°C° 0.3 mm 1 mps 733 mmHg 97%
    21:00 -5°C° 0.1 mm 2 mps 733 mmHg 96%
    22:00 -6°C° 0.1 mm 2 mps 733 mmHg 95%
    23:00 -6°C° 0.1 mm 2 mps 734 mmHg 95%

    21 January, Monday

    Time Temperature Precipitation Wind Pressure Humidity
    00:00 -7°C° 0 mm 3 mps 734 mmHg 94%
    01:00 -8°C° 0 mm 3 mps 734 mmHg 94%
    02:00 -8°C° 0 mm 3 mps 734 mmHg 94%
    03:00 -9°C° 0 mm 3 mps 735 mmHg 94%
    04:00 -9°C° 0 mm 3 mps 735 mmHg 93%
    05:00 -9°C° 0 mm 3 mps 735 mmHg 93%
    06:00 -10°C° 0 mm 3 mps 736 mmHg 92%
    07:00 -10°C° 0 mm 3 mps 736 mmHg 91%
    08:00 -10°C° 0 mm 3 mps 737 mmHg 90%
    09:00 -10°C° 0 mm 4 mps 737 mmHg 90%
    10:00 -9°C° 0 mm 4 mps 738 mmHg 90%
    11:00 -8°C° 0 mm 5 mps 738 mmHg 90%
    12:00 -7°C° 0 mm 4 mps 738 mmHg 88%
    13:00 -7°C° 0 mm 4 mps 739 mmHg 86%
    14:00 -6°C° 0 mm 3 mps 739 mmHg 83%
    15:00 -7°C° 0 mm 3 mps 739 mmHg 85%
    16:00 -7°C° 0 mm 2 mps 739 mmHg 87%
    17:00 -8°C° 0 mm 2 mps 740 mmHg 89%
    18:00 -8°C° 0 mm 2 mps 740 mmHg 90%
    19:00 -8°C° 0 mm 1 mps 740 mmHg 91%
    20:00 -8°C° 0 mm 1 mps 740 mmHg 91%
    21:00 -9°C° 0 mm 1 mps 741 mmHg 91%
    22:00 -9°C° 0 mm 1 mps 741 mmHg 90%
    23:00 -9°C° 0 mm 0 mps 741 mmHg 90%

    22 January, Tuesday

    Time Temperature Precipitation Wind Pressure Humidity
    00:00 -9°C° 0 mm 1 mps 740 mmHg 90%
    01:00 -9°C° 0 mm 1 mps 740 mmHg 90%
    02:00 -12°C° 0 mm 2 mps 740 mmHg 90%
    03:00 -12°C° 0 mm 2 mps 740 mmHg 91%
    04:00 -12°C° 0 mm 2 mps 739 mmHg 91%
    05:00 -13°C° 0 mm 3 mps 739 mmHg 92%
    06:00 -13°C° 0 mm 3 mps 738 mmHg 92%
    07:00 -13°C° 0 mm 3 mps 738 mmHg 92%
    08:00 -14°C° 0 mm 4 mps 738 mmHg 92%
    09:00 -12°C° 0 mm 4 mps 737 mmHg 91%
    10:00 -12°C° 0 mm 5 mps 737 mmHg 89%
    11:00 -12°C° 0 mm 5 mps 737 mmHg 88%
    12:00 -11°C° 0 mm 5 mps 736 mmHg 88%
    13:00 -11°C° 0 mm 5 mps 735 mmHg 88%
    14:00 -9°C° 0 mm 4 mps 734 mmHg 88%
    15:00 -10°C° 0 mm 4 mps 734 mmHg 89%
    16:00 -11°C° 0 mm 4 mps 733 mmHg 90%
    17:00 -11°C° 0 mm 4 mps 733 mmHg 91%
    18:00 -11°C° 0 mm 4 mps 732 mmHg 92%
    19:00 -10°C° 0 mm 4 mps 732 mmHg 94%
    20:00 -11°C° 0 mm 5 mps 732 mmHg 95%
    21:00 -10°C° 0 mm 5 mps 731 mmHg 94%
    22:00 -8°C° 0 mm 5 mps 730 mmHg 94%
    23:00 -7°C° 0 mm 5 mps 730 mmHg 93%

    23 January, Wednesday

    Time Temperature Precipitation Wind Pressure Humidity
    00:00 -8°C° 0 mm 6 mps 729 mmHg 93%
    01:00 -6°C° 0 mm 6 mps 729 mmHg 93%
    02:00 -6°C° 0 mm 6 mps 728 mmHg 92%
    03:00 -6°C° 0 mm 6 mps 728 mmHg 92%
    04:00 -5°C° 0 mm 6 mps 727 mmHg 92%
    05:00 -6°C° 0 mm 7 mps 726 mmHg 92%
    06:00 -5°C° 0 mm 6 mps 726 mmHg 92%
    07:00 -5°C° 0 mm 6 mps 726 mmHg 92%
    08:00 -5°C° 0 mm 6 mps 725 mmHg 92%
    09:00 -4°C° 0 mm 6 mps 725 mmHg 92%
    10:00 -3°C° 0 mm 7 mps 725 mmHg 92%
    11:00 -3°C° 0 mm 7 mps 725 mmHg 91%
    12:00 -2°C° 0 mm 7 mps 724 mmHg 93%
    13:00 -2°C° 0 mm 7 mps 724 mmHg 94%
    14:00 -2°C° 0 mm 7 mps 723 mmHg 96%
    15:00 -2°C° 0 mm 6 mps 723 mmHg 95%
    16:00 -2°C° 0 mm 6 mps 723 mmHg 94%
    17:00 -2°C° 0 mm 6 mps 723 mmHg 94%
    18:00 -3°C° 0.2 mm 6 mps 723 mmHg 94%
    19:00 -3°C° 0.2 mm 6 mps 723 mmHg 94%
    20:00 -4°C° 0.2 mm 6 mps 723 mmHg 94%
    21:00 -4°C° 0.3 mm 5 mps 723 mmHg 94%
    22:00 -5°C° 0.3 mm 5 mps 723 mmHg 95%
    23:00 -4°C° 0.3 mm 4 mps 723 mmHg 95%
    Show more